Weather in Hato International Airport

Curacao     12°08′40″N   68°57′51″W
temp.,
°C
wind,
m/s
gust,
m/s
humid.,
%
clouds,
%
prec.,
mm/h
press.,
hPa
HPBL,
m
5 march, fri
fri523:00+26e8108159 0.0 1014880
02:00+26e798058 0.1 1012955
05:00+26e78824 0.1 1012809
08:00+26e578324 0.4 1013649
11:00+26e678427 0.2 1014656
14:00+26ene788322 0.5 1011677
17:00+26ene88830 0.0 1009688
20:00+26e9108323 0.0 1010843
6 march, sat
sat623:00+26e8118451 0.0 1012932
02:00+26ese8108361 0.3 1011898
05:00+26ese9118498 0.7 1010846
08:00+27ese9128298 1.6 1012859
11:00+27ese9128293 0.0 1013834
14:00+27e10128296 0.1 1011932
17:00+26e10138499 0.0 1009825
20:00+26e11138299 0.0 1011821
7 march, sun
sun723:00+26e10138331 0.0 1013909
02:00+26e10128262 0.0 1012989
05:00+26e10128394 0.1 10121018
08:00+26e10138297 0.4 10141022
11:00+27e10138242 0.2 1015934
14:00+27e11138358 0.2 1012925
17:00+26e10128349 0.0 1010901
20:00+26e11138274 0.0 1012896
8 march, mon
mon823:00+26e10138350 0.0 10141025
02:00+26e10128373 0.2 10131021
05:00+26e101282100 0.4 1012999
08:00+26e101282100 0.8 1014942
11:00+26e10128296 0.1 1016925
14:00+26e10118180 0.3 1013979
17:00+26e10118222 0.1 1012948
20:00+26ene10118036 0.2 10131007
9 march, tue
tue923:00+26e9118098 0.1 10151120
02:00+26e9118178 0.1 10131003
05:00+26e9118168 0.3 1013955
08:00+26e10118074 0.3 10141024
11:00+26e91178100 0.0 10161083
14:00+26e9107889 0.1 10131079
17:00+26ene9107961 0.1 1011928
20:00+26e9107980 0.1 10121016